Location: Canet
(43.3261°N, 5.3723°E)
Time: 14:19:41
(UTC+00:00)

Envisat - Pass Details

Date: 26 September 2021
Orbit: 764 x 766 km, 98.2° (Epoch: 18 October)

Event Time Altitude Azimuth Distance (km) Brightness Sun altitude
Rises 04:59:40 0° 11° (NNE) 3,241 6.5 -6.4°
Reaches altitude 10° 05:01:59 10° 11° (N) 2,310 5.7 -6.0°
Maximum altitude 05:07:04 80° 286° (WNW) 781 3.0 -5.1°
Drops below altitude 10° 05:12:08 10° 199° (SSW) 2,293 5.3 -4.1°
Sets 05:14:25 0° 198° (SSW) 3,215 6.0 -3.7°
